Location: Bratsk-Energetik
(56.3300°N, 101.7600°E)
Time: 22:17:34
(UTC+08:00)

ISS - Pass Details

Date: 24 May 2017
Orbit: 402 x 409 km, 51.6° (Epoch: 25 May)

Event Time Altitude Azimuth Distance (km) Brightness Sun altitude
Rises 01:45:18 0° 257° (WSW) 2,330 -0.2 -12.6°
Reaches altitude 10° 01:47:28 10° 249° (WSW) 1,468 -1.3 -12.5°
Maximum altitude 01:50:32 36° 181° (S) 664 -3.3 -12.5°
Drops below altitude 10° 01:53:34 10° 113° (ESE) 1,465 -1.1 -12.4°
Sets 01:55:44 0° 104° (ESE) 2,323 0.0 -12.3°
